AFL1305 URMM-UUEE

Flight info

Callsign AFL1305
Flight time N/A
Altitude 37000
Route URILU5M URILU R227 BEMES DCT VULFI DCT TUVGI/K0843F360 DCT EVZUN DCT ZIZAR DCT VAZLU/K0843F380 DCT UZZID DCT NOKLI/K0852F370 N72 WGD G481 OBABI T619 LUGIL/K0867F380 T619 UMRAL/K0870F370 P163 LADIM/K0870F380 P163 GOLRI L736 OLOPI OLOPI3F
Aircraft A320/M-SDE3FGHIRWY/LB1

Departure

Time 2026-04-27 09:34
Airport Mineralnye Vody Airport (URMM)

Arrival

Time N/A
Airport Sheremetyevo International Airport (UUEE)
Time Latitude Longitude Altitude Speed Heading
2026-04-27 08:49 44.21866 43.08801 1051 ft 0 kts 212°
2026-04-27 08:54 44.21867 43.08801 1051 ft 0 kts 212°
2026-04-27 09:26 44.21879 43.08812 1051 ft 4 kts 208°
2026-04-27 09:26 44.21903 43.08827 1051 ft 4 kts 194°
2026-04-27 09:26 44.21928 43.08829 1051 ft 4 kts 155°
2026-04-27 09:27 44.21940 43.08817 1051 ft 1 kts 122°
2026-04-27 09:27 44.21941 43.08814 1051 ft 0 kts 122°
2026-04-27 09:29 44.21941 43.08815 1051 ft 1 kts 122°
2026-04-27 09:29 44.21929 43.08841 1051 ft 6 kts 122°
2026-04-27 09:30 44.21898 43.08910 1051 ft 11 kts 122°
2026-04-27 09:30 44.21851 43.09013 1051 ft 14 kts 122°
2026-04-27 09:30 44.21788 43.09136 1051 ft 18 kts 126°
2026-04-27 09:30 44.21736 43.09251 1051 ft 15 kts 122°
2026-04-27 09:31 44.21659 43.09375 1051 ft 19 kts 126°
2026-04-27 09:31 44.21599 43.09525 1051 ft 19 kts 119°
2026-04-27 09:31 44.21524 43.09695 1051 ft 23 kts 125°
2026-04-27 09:31 44.21525 43.09856 1051 ft 18 kts 78°
2026-04-27 09:32 44.21557 43.10050 1051 ft 22 kts 73°
2026-04-27 09:32 44.21606 43.10223 1052 ft 17 kts 43°
2026-04-27 09:32 44.21707 43.10311 1050 ft 15 kts 31°
2026-04-27 09:32 44.21789 43.10261 1053 ft 14 kts 301°
2026-04-27 09:33 44.21847 43.10125 1052 ft 41 kts 301°
2026-04-27 09:33 44.22128 43.09507 1057 ft 106 kts 302°
2026-04-27 09:33 44.22619 43.08420 1055 ft 156 kts 302°
2026-04-27 09:33 44.23242 43.07074 1532 ft 165 kts 303°
2026-04-27 09:34 44.23864 43.05731 2369 ft 165 kts 302°
2026-04-27 09:34 44.24495 43.04341 2914 ft 178 kts 302°
2026-04-27 09:34 44.25193 43.02781 3238 ft 202 kts 302°
2026-04-27 09:34 44.25980 43.01020 3663 ft 226 kts 302°
2026-04-27 09:35 44.26834 42.99113 4398 ft 236 kts 301°
2026-04-27 09:35 44.27713 42.97155 5334 ft 240 kts 300°
2026-04-27 09:35 44.28607 42.95165 6259 ft 244 kts 297°
2026-04-27 09:35 44.29515 42.93146 7128 ft 248 kts 297°
2026-04-27 09:36 44.30756 42.91365 7843 ft 272 kts 324°
2026-04-27 09:36 44.32670 42.90732 8589 ft 300 kts 357°
2026-04-27 09:36 44.34715 42.91626 9356 ft 321 kts 30°
2026-04-27 09:36 44.36259 42.93866 10106 ft 330 kts 62°
2026-04-27 09:37 44.36940 42.96964 10508 ft 344 kts 91°
2026-04-27 09:37 44.36528 43.00275 10764 ft 353 kts 121°
2026-04-27 09:37 44.35170 43.03188 10975 ft 366 kts 134°
2026-04-27 09:37 44.33594 43.06076 11372 ft 380 kts 134°
2026-04-27 09:38 44.31965 43.09033 12023 ft 386 kts 134°
2026-04-27 09:38 44.30484 43.12221 12673 ft 400 kts 119°
2026-04-27 09:38 44.29643 43.15985 13370 ft 410 kts 108°
2026-04-27 09:38 44.28869 43.19825 14034 ft 413 kts 111°
2026-04-27 09:39 44.27981 43.23658 14630 ft 417 kts 112°
2026-04-27 09:39 44.27033 43.27503 15226 ft 421 kts 113°
2026-04-27 09:39 44.26064 43.31385 15799 ft 425 kts 113°
2026-04-27 09:39 44.25103 43.35312 16353 ft 430 kts 112°
2026-04-27 09:40 44.24165 43.39242 16892 ft 435 kts 112°
2026-04-27 09:40 44.23223 43.43271 17439 ft 439 kts 112°
2026-04-27 09:40 44.22282 43.47349 17952 ft 443 kts 111°
2026-04-27 09:40 44.21339 43.51466 18466 ft 448 kts 111°
2026-04-27 09:41 44.20387 43.55613 18922 ft 451 kts 111°
2026-04-27 09:41 44.19420 43.59780 19395 ft 454 kts 111°
2026-04-27 09:41 44.18436 43.63978 19865 ft 457 kts 111°
2026-04-27 09:41 44.17444 43.68191 20329 ft 459 kts 111°
2026-04-27 09:42 44.16612 43.72527 20794 ft 465 kts 103°
2026-04-27 09:42 44.16099 43.76992 21246 ft 469 kts 101°
2026-04-27 09:42 44.15596 43.81490 21702 ft 471 kts 101°
2026-04-27 09:42 44.15091 43.85957 22148 ft 473 kts 101°
2026-04-27 09:43 44.14569 43.90544 22648 ft 474 kts 101°
2026-04-27 09:43 44.14050 43.95082 23089 ft 476 kts 101°
2026-04-27 09:43 44.13533 43.99594 23516 ft 479 kts 101°
2026-04-27 09:43 44.13004 44.04172 23889 ft 481 kts 101°
2026-04-27 09:44 44.12468 44.08785 24245 ft 483 kts 101°
2026-04-27 09:44 44.11926 44.13419 24602 ft 485 kts 101°
2026-04-27 09:44 44.11382 44.18066 24950 ft 487 kts 101°
2026-04-27 09:44 44.10834 44.22733 25295 ft 489 kts 101°
2026-04-27 09:45 44.10285 44.27416 25637 ft 490 kts 101°
2026-04-27 09:45 44.09735 44.32103 25981 ft 492 kts 101°
2026-04-27 09:45 44.09191 44.36751 26302 ft 493 kts 101°
2026-04-27 09:45 44.08635 44.41468 26612 ft 495 kts 101°
2026-04-27 09:46 44.08076 44.46197 26917 ft 497 kts 101°
2026-04-27 09:46 44.07511 44.50949 27219 ft 498 kts 101°
2026-04-27 09:46 44.06941 44.55713 27518 ft 500 kts 101°
2026-04-27 09:46 44.06371 44.60492 27828 ft 502 kts 101°
2026-04-27 09:47 44.05841 44.65289 28252 ft 500 kts 100°
2026-04-27 09:47 44.05351 44.70068 28685 ft 499 kts 100°
2026-04-27 09:47 44.04883 44.74839 29098 ft 498 kts 99°
2026-04-27 09:47 44.04418 44.79612 29530 ft 497 kts 99°
2026-04-27 09:48 44.03943 44.84371 29957 ft 496 kts 100°
2026-04-27 09:48 44.03461 44.89058 30345 ft 495 kts 100°
2026-04-27 09:48 44.02960 44.93807 30724 ft 493 kts 101°
2026-04-27 09:48 44.02455 44.98508 31102 ft 491 kts 101°
2026-04-27 09:49 44.01946 45.03205 31488 ft 489 kts 101°
2026-04-27 09:49 44.01444 45.07865 31876 ft 488 kts 101°
2026-04-27 09:49 44.00943 45.12529 32269 ft 485 kts 101°
2026-04-27 09:49 44.00445 45.17152 32721 ft 482 kts 101°
2026-04-27 09:50 43.99957 45.21681 33119 ft 480 kts 101°
2026-04-27 09:50 43.99460 45.26252 33510 ft 478 kts 101°
2026-04-27 09:50 43.98959 45.30800 33906 ft 476 kts 101°
2026-04-27 09:50 43.98455 45.35331 34256 ft 474 kts 101°
2026-04-27 09:51 43.97948 45.39855 34555 ft 474 kts 101°
2026-04-27 09:51 43.97437 45.44379 34829 ft 474 kts 101°
2026-04-27 09:51 43.96926 45.48892 35090 ft 474 kts 101°
2026-04-27 09:51 43.96412 45.53406 35351 ft 474 kts 102°
2026-04-27 09:52 43.95897 45.57929 35622 ft 472 kts 101°
2026-04-27 09:52 43.95382 45.62432 35891 ft 472 kts 101°
2026-04-27 09:52 43.94869 45.66934 36120 ft 472 kts 101°
2026-04-27 09:52 43.94357 45.71437 36341 ft 472 kts 101°
2026-04-27 09:53 43.93845 45.75932 36556 ft 473 kts 102°
2026-04-27 09:53 43.93325 45.80446 36759 ft 473 kts 102°
2026-04-27 09:53 43.92802 45.84949 36958 ft 474 kts 102°
2026-04-27 09:54 43.92561 45.94139 37034 ft 481 kts 85°
2026-04-27 09:54 43.93265 46.03335 37022 ft 482 kts 85°
2026-04-27 09:55 43.93950 46.12602 37025 ft 483 kts 85°
2026-04-27 09:55 43.94930 46.26543 37015 ft 483 kts 85°
2026-04-27 09:56 43.95587 46.35824 37021 ft 483 kts 85°
2026-04-27 09:56 43.96238 46.45114 37011 ft 484 kts 86°
2026-04-27 09:57 43.96878 46.54402 37019 ft 484 kts 86°
2026-04-27 09:57 43.97508 46.63702 36992 ft 484 kts 86°
2026-04-27 09:58 43.98130 46.72999 37002 ft 484 kts 86°
2026-04-27 09:58 43.98751 46.82298 37001 ft 484 kts 86°
2026-04-27 09:59 43.99367 46.91599 37004 ft 484 kts 86°
2026-04-27 09:59 43.99969 47.00898 36990 ft 483 kts 86°
2026-04-27 10:00 44.00565 47.10195 36990 ft 483 kts 86°
2026-04-27 10:00 44.01142 47.19490 36985 ft 483 kts 86°
2026-04-27 10:01 44.01723 47.28799 36974 ft 483 kts 86°
2026-04-27 10:01 44.02298 47.38090 36973 ft 483 kts 86°
2026-04-27 10:02 44.02859 47.47314 36976 ft 482 kts 86°
2026-04-27 10:02 44.03356 47.55760 36963 ft 482 kts 86°
2026-04-27 10:03 44.03902 47.65054 36965 ft 482 kts 86°
2026-04-27 10:03 44.04449 47.74343 36959 ft 482 kts 86°
2026-04-27 10:04 44.04979 47.83627 36949 ft 482 kts 87°
2026-04-27 10:04 44.05510 47.92939 36935 ft 482 kts 87°
2026-04-27 10:05 44.06036 48.02161 36941 ft 481 kts 87°
2026-04-27 10:05 44.06542 48.11434 36939 ft 481 kts 87°
2026-04-27 10:06 44.07035 48.20716 36942 ft 480 kts 88°
2026-04-27 10:06 44.07520 48.29986 36936 ft 480 kts 87°
2026-04-27 10:07 44.08011 48.39255 36937 ft 480 kts 88°
2026-04-27 10:07 44.08500 48.48518 36932 ft 480 kts 88°
2026-04-27 10:08 44.08981 48.57783 36913 ft 480 kts 88°
2026-04-27 10:08 44.09444 48.67004 36917 ft 481 kts 88°
2026-04-27 10:09 44.09902 48.76295 36920 ft 481 kts 88°
2026-04-27 10:09 44.10356 48.85572 36921 ft 481 kts 88°
2026-04-27 10:10 44.10849 48.90178 36927 ft 483 kts 75°
2026-04-27 10:10 44.12104 48.94515 36926 ft 484 kts 60°
2026-04-27 10:10 44.14080 48.98315 36921 ft 484 kts 45°
2026-04-27 10:10 44.16632 49.01325 36917 ft 481 kts 30°
2026-04-27 10:11 44.19602 49.03389 36911 ft 476 kts 16°
2026-04-27 10:11 44.22811 49.04394 36908 ft 470 kts
2026-04-27 10:11 44.26050 49.04312 36905 ft 463 kts 347°
2026-04-27 10:11 44.29138 49.03221 36903 ft 455 kts 334°
2026-04-27 10:12 44.34003 49.00411 36925 ft 455 kts 333°
2026-04-27 10:12 44.40812 48.96457 36927 ft 456 kts 333°
2026-04-27 10:13 44.46682 48.93044 36933 ft 457 kts 333°
2026-04-27 10:13 44.52547 48.89615 36951 ft 457 kts 333°
2026-04-27 10:14 44.57415 48.86754 36959 ft 456 kts 333°
2026-04-27 10:14 44.63280 48.83315 36966 ft 456 kts 333°
2026-04-27 10:15 44.69159 48.79880 36958 ft 457 kts 333°
2026-04-27 10:15 44.75021 48.76427 36974 ft 456 kts 333°
2026-04-27 10:16 44.80843 48.72975 36958 ft 456 kts 333°
2026-04-27 10:16 44.86695 48.69494 36965 ft 456 kts 333°
2026-04-27 10:17 44.92558 48.66027 36979 ft 456 kts 333°
2026-04-27 10:17 44.98414 48.62564 36976 ft 455 kts 333°
2026-04-27 10:18 45.04235 48.59096 36976 ft 455 kts 333°
2026-04-27 10:18 45.10069 48.55613 36974 ft 455 kts 333°
2026-04-27 10:19 45.15909 48.52119 36985 ft 455 kts 332°
2026-04-27 10:19 45.21713 48.48646 36978 ft 455 kts 332°
2026-04-27 10:20 45.27546 48.45150 36971 ft 455 kts 332°
2026-04-27 10:20 45.33375 48.41641 36984 ft 455 kts 332°
2026-04-27 10:21 45.39196 48.38125 36976 ft 454 kts 332°
2026-04-27 10:21 45.45012 48.34598 36971 ft 454 kts 332°
2026-04-27 10:22 45.50817 48.31074 36968 ft 453 kts 332°
2026-04-27 10:22 45.56618 48.27546 36983 ft 453 kts 331°
2026-04-27 10:23 45.62424 48.24000 36971 ft 454 kts 331°
2026-04-27 10:23 45.68248 48.20447 36972 ft 454 kts 331°
2026-04-27 10:24 45.74024 48.16914 36967 ft 454 kts 331°
2026-04-27 10:24 45.79852 48.13348 36972 ft 454 kts 331°
2026-04-27 10:25 45.85660 48.09783 36974 ft 454 kts 331°
2026-04-27 10:25 45.91439 48.06217 36968 ft 454 kts 331°
2026-04-27 10:26 45.97248 48.02621 37008 ft 454 kts 331°
2026-04-27 10:26 46.03047 47.99023 37003 ft 453 kts 329°
2026-04-27 10:27 46.08204 47.94148 37004 ft 438 kts 311°
2026-04-27 10:27 46.12023 47.87494 37027 ft 427 kts 297°
2026-04-27 10:28 46.15260 47.80300 37001 ft 428 kts 297°
2026-04-27 10:28 46.18517 47.73092 36992 ft 428 kts 297°
2026-04-27 10:29 46.21735 47.65927 36997 ft 428 kts 297°
2026-04-27 10:29 46.24971 47.58698 36996 ft 428 kts 297°
2026-04-27 10:30 46.28206 47.51472 37007 ft 428 kts 297°
2026-04-27 10:30 46.31442 47.44260 36999 ft 428 kts 297°
2026-04-27 10:31 46.34664 47.37033 37000 ft 427 kts 296°
2026-04-27 10:31 46.37877 47.29792 36995 ft 427 kts 296°
2026-04-27 10:32 46.41089 47.22560 37024 ft 426 kts 296°
2026-04-27 10:32 46.44270 47.15370 37017 ft 426 kts 296°
2026-04-27 10:33 46.47458 47.08145 37019 ft 425 kts 296°
2026-04-27 10:33 46.50634 47.00919 37014 ft 424 kts 295°
2026-04-27 10:34 46.53801 46.93695 37033 ft 424 kts 295°
2026-04-27 10:34 46.56965 46.86463 37022 ft 424 kts 295°
2026-04-27 10:35 46.60123 46.79226 37013 ft 424 kts 295°
2026-04-27 10:35 46.63281 46.71974 37017 ft 424 kts 295°
2026-04-27 10:36 46.66415 46.64758 37040 ft 424 kts 295°
2026-04-27 10:36 46.69557 46.57505 37030 ft 424 kts 295°
2026-04-27 10:37 46.72697 46.50232 37017 ft 424 kts 295°
2026-04-27 10:37 46.75832 46.42950 37016 ft 424 kts 295°
2026-04-27 10:38 46.78967 46.35662 37055 ft 423 kts 294°
2026-04-27 10:38 46.82083 46.28401 37023 ft 420 kts 294°
2026-04-27 10:39 46.85170 46.21170 37023 ft 420 kts 294°
2026-04-27 10:39 46.88257 46.13920 37024 ft 420 kts 294°
2026-04-27 10:40 46.91564 46.06836 37012 ft 429 kts 304°
2026-04-27 10:40 46.96306 46.01350 37008 ft 449 kts 324°
2026-04-27 10:41 47.01997 45.97407 36991 ft 452 kts 326°
2026-04-27 10:41 47.07681 45.93425 36990 ft 453 kts 325°
2026-04-27 10:42 47.13372 45.89408 37035 ft 454 kts 325°
2026-04-27 10:42 47.19060 45.85395 37030 ft 454 kts 325°
2026-04-27 10:43 47.24760 45.81388 37017 ft 453 kts 325°
2026-04-27 10:43 47.30410 45.77399 37011 ft 453 kts 325°
2026-04-27 10:44 47.36096 45.73365 37002 ft 453 kts 325°
2026-04-27 10:44 47.41772 45.69335 36999 ft 453 kts 325°
2026-04-27 10:45 47.47463 45.65290 36999 ft 453 kts 325°
2026-04-27 10:45 47.52224 45.61895 36998 ft 453 kts 325°
2026-04-27 10:46 47.57950 45.57804 37022 ft 453 kts 324°
2026-04-27 10:46 47.63622 45.53734 37009 ft 453 kts 324°
2026-04-27 10:47 47.69303 45.49652 36997 ft 453 kts 324°
2026-04-27 10:47 47.74980 45.45573 36983 ft 453 kts 324°
2026-04-27 10:48 47.80421 45.41055 36991 ft 439 kts 313°
2026-04-27 10:48 47.84939 45.35149 36965 ft 431 kts 308°
2026-04-27 10:49 47.89353 45.29167 36962 ft 432 kts 308°
2026-04-27 10:49 47.93812 45.23143 36963 ft 432 kts 308°
2026-04-27 10:50 47.98270 45.17099 36985 ft 434 kts 308°
2026-04-27 10:50 48.02800 45.11096 36952 ft 441 kts 314°
2026-04-27 10:51 48.07911 45.05915 36947 ft 447 kts 316°
2026-04-27 10:51 48.13102 45.00727 36948 ft 448 kts 316°
2026-04-27 10:52 48.18290 44.95511 37000 ft 448 kts 316°
2026-04-27 10:52 48.23447 44.90307 36974 ft 449 kts 316°
2026-04-27 10:53 48.31220 44.82431 36951 ft 449 kts 316°
2026-04-27 10:54 48.36410 44.77165 36967 ft 449 kts 316°
2026-04-27 10:54 48.41525 44.71984 36935 ft 444 kts 316°
2026-04-27 10:55 48.46644 44.66762 36918 ft 444 kts 316°
2026-04-27 10:55 48.51739 44.61532 36926 ft 445 kts 316°
2026-04-27 10:56 48.56875 44.56265 36953 ft 446 kts 316°
2026-04-27 10:56 48.62020 44.50974 36939 ft 448 kts 316°
2026-04-27 10:57 48.67169 44.45651 36929 ft 449 kts 316°
2026-04-27 10:57 48.72322 44.40313 36935 ft 449 kts 316°
2026-04-27 10:58 48.77542 44.35054 36963 ft 457 kts 322°
2026-04-27 10:58 48.80461 44.32973 36947 ft 468 kts 330°
2026-04-27 10:58 48.83527 44.31248 36938 ft 470 kts 330°
2026-04-27 10:59 48.89628 44.27822 36923 ft 471 kts 330°
2026-04-27 10:59 48.95777 44.24347 36924 ft 472 kts 330°
2026-04-27 11:00 49.05027 44.19103 36938 ft 474 kts 331°
2026-04-27 11:00 49.11207 44.15576 36913 ft 474 kts 331°
2026-04-27 11:01 49.16344 44.12630 36909 ft 475 kts 331°
2026-04-27 11:01 49.23555 44.08494 36946 ft 476 kts 332°
2026-04-27 11:02 49.28752 44.05511 36932 ft 476 kts 332°
2026-04-27 11:02 49.34914 44.01959 36919 ft 476 kts 332°
2026-04-27 11:03 49.41123 43.98370 36915 ft 476 kts 332°
2026-04-27 11:03 49.47334 43.94770 36904 ft 476 kts 332°
2026-04-27 11:04 49.53357 43.90836 36904 ft 467 kts 323°
2026-04-27 11:04 49.59080 43.86035 36909 ft 468 kts 323°
2026-04-27 11:05 49.64802 43.81236 36900 ft 468 kts 323°
2026-04-27 11:05 49.70502 43.76450 36929 ft 468 kts 323°
2026-04-27 11:06 49.76228 43.71623 36917 ft 469 kts 324°
2026-04-27 11:06 49.81964 43.66781 36905 ft 469 kts 324°
2026-04-27 11:07 49.87695 43.61925 36895 ft 469 kts 324°
2026-04-27 11:07 49.93431 43.57046 36938 ft 470 kts 324°
2026-04-27 11:08 49.99103 43.52217 36866 ft 466 kts 324°
2026-04-27 11:08 50.04790 43.47347 36861 ft 467 kts 324°
2026-04-27 11:09 50.10488 43.42456 36866 ft 467 kts 324°
2026-04-27 11:09 50.16185 43.37568 36903 ft 468 kts 324°
2026-04-27 11:10 50.21890 43.32651 36891 ft 467 kts 324°
2026-04-27 11:10 50.27547 43.27768 36873 ft 467 kts 324°
2026-04-27 11:11 50.33233 43.22844 36868 ft 467 kts 324°
2026-04-27 11:11 50.38921 43.17912 36891 ft 467 kts 324°
2026-04-27 11:12 50.44606 43.12956 36864 ft 467 kts 324°
2026-04-27 11:12 50.50276 43.07990 36850 ft 466 kts 324°
2026-04-27 11:13 50.55913 43.03052 36847 ft 466 kts 324°
2026-04-27 11:13 50.61583 42.98067 36873 ft 466 kts 325°
2026-04-27 11:14 50.67246 42.93080 36867 ft 466 kts 325°
2026-04-27 11:14 50.73244 42.88967 36843 ft 475 kts 335°
2026-04-27 11:15 50.79477 42.85507 36832 ft 475 kts 335°
2026-04-27 11:15 50.85716 42.82020 36856 ft 476 kts 335°
2026-04-27 11:16 50.91944 42.78541 36843 ft 476 kts 335°
2026-04-27 11:16 50.98184 42.75048 36836 ft 476 kts 335°
2026-04-27 11:17 51.04431 42.71529 36827 ft 476 kts 335°
2026-04-27 11:17 51.10668 42.68007 36828 ft 476 kts 335°
2026-04-27 11:18 51.16914 42.64472 36817 ft 476 kts 335°
2026-04-27 11:18 51.23149 42.60935 36806 ft 476 kts 335°
2026-04-27 11:19 51.29399 42.57372 36806 ft 476 kts 335°
2026-04-27 11:19 51.35639 42.53800 36798 ft 476 kts 335°
2026-04-27 11:20 51.41890 42.50219 36820 ft 476 kts 335°
2026-04-27 11:20 51.48104 42.46671 36804 ft 476 kts 335°
2026-04-27 11:21 51.54339 42.43088 36789 ft 476 kts 335°
2026-04-27 11:21 51.60567 42.39475 36775 ft 476 kts 335°
2026-04-27 11:22 51.66810 42.35854 36791 ft 477 kts 336°
2026-04-27 11:22 51.73057 42.32233 36780 ft 477 kts 336°
2026-04-27 11:23 51.79267 42.28618 36776 ft 477 kts 336°
2026-04-27 11:23 51.85510 42.24964 36773 ft 477 kts 336°
2026-04-27 11:24 51.91741 42.21305 36758 ft 476 kts 335°
2026-04-27 11:24 51.97980 42.17638 36749 ft 477 kts 336°
2026-04-27 11:25 52.04228 42.13965 36739 ft 477 kts 336°
2026-04-27 11:25 52.10433 42.10303 36728 ft 477 kts 336°
2026-04-27 11:26 52.16707 42.06751 36726 ft 478 kts 337°
2026-04-27 11:26 52.23030 42.03319 36736 ft 478 kts 338°
2026-04-27 11:27 52.29344 41.99873 36726 ft 479 kts 338°
2026-04-27 11:27 52.35696 41.96562 36723 ft 482 kts 344°
2026-04-27 11:28 52.42431 41.95738 36705 ft 488 kts 359°
2026-04-27 11:28 52.49226 41.96127 36722 ft 489 kts 359°
2026-04-27 11:29 52.55978 41.96515 36705 ft 489 kts 359°
2026-04-27 11:29 52.62766 41.96882 36699 ft 488 kts 359°
2026-04-27 11:30 52.69444 41.95599 36694 ft 480 kts 340°
2026-04-27 11:30 52.75419 41.91034 36686 ft 470 kts 321°
2026-04-27 11:31 52.80524 41.84334 36689 ft 468 kts 317°
2026-04-27 11:31 52.85569 41.77513 36660 ft 468 kts 317°
2026-04-27 11:32 52.90610 41.70678 36656 ft 469 kts 317°
2026-04-27 11:32 52.95660 41.63830 36658 ft 469 kts 317°
2026-04-27 11:33 53.00709 41.56962 36687 ft 469 kts 317°
2026-04-27 11:33 53.05727 41.50108 36658 ft 469 kts 316°
2026-04-27 11:34 53.10778 41.43198 36654 ft 469 kts 316°
2026-04-27 11:34 53.14957 41.37443 36635 ft 469 kts 317°
2026-04-27 11:35 53.20884 41.29422 36631 ft 471 kts 322°
2026-04-27 11:35 53.26833 41.24670 36634 ft 479 kts 340°
2026-04-27 11:36 53.33180 41.21458 36622 ft 479 kts 340°
2026-04-27 11:36 53.39583 41.18187 36603 ft 480 kts 340°
2026-04-27 11:37 53.45967 41.14913 36589 ft 480 kts 340°
2026-04-27 11:37 53.52365 41.11615 36609 ft 481 kts 339°
2026-04-27 11:38 53.58761 41.08312 36594 ft 481 kts 339°
2026-04-27 11:38 53.65019 41.04623 36590 ft 476 kts 329°
2026-04-27 11:39 53.70298 40.98090 36575 ft 467 kts 309°
2026-04-27 11:39 53.73857 40.89135 36572 ft 456 kts 290°
2026-04-27 11:40 53.76393 40.79282 36573 ft 456 kts 290°
2026-04-27 11:40 53.78909 40.69473 36565 ft 457 kts 289°
2026-04-27 11:41 53.81442 40.59605 36557 ft 457 kts 290°
2026-04-27 11:41 53.83975 40.49710 36553 ft 458 kts 290°
2026-04-27 11:42 53.86484 40.39799 36566 ft 458 kts 289°
2026-04-27 11:42 53.88985 40.29855 36555 ft 458 kts 290°
2026-04-27 11:43 53.91492 40.19929 36553 ft 458 kts 290°
2026-04-27 11:43 53.93989 40.10047 36533 ft 458 kts 290°
2026-04-27 11:44 53.96484 40.00113 36534 ft 457 kts 291°
2026-04-27 11:44 53.98966 39.90161 36542 ft 457 kts 290°
2026-04-27 11:45 54.01022 39.81833 36533 ft 457 kts 290°
2026-04-27 11:45 54.03879 39.70240 36528 ft 457 kts 290°
2026-04-27 11:46 54.06330 39.60275 36532 ft 456 kts 290°
2026-04-27 11:46 54.08776 39.50293 36513 ft 456 kts 290°
2026-04-27 11:47 54.11212 39.40294 36514 ft 457 kts 290°
2026-04-27 11:47 54.13624 39.30362 36417 ft 455 kts 290°
2026-04-27 11:48 54.14836 39.25342 35560 ft 460 kts 289°
2026-04-27 11:48 54.16054 39.20282 34697 ft 463 kts 290°
2026-04-27 11:48 54.17279 39.15177 33876 ft 465 kts 290°
2026-04-27 11:48 54.18507 39.10054 33069 ft 465 kts 289°
2026-04-27 11:49 54.19723 39.04965 32510 ft 458 kts 289°
2026-04-27 11:49 54.20511 39.01668 32396 ft 447 kts 289°
2026-04-27 11:49 54.21695 38.96812 31960 ft 439 kts 294°
2026-04-27 11:49 54.23293 38.92396 31389 ft 437 kts 306°
2026-04-27 11:50 54.25425 38.88698 30878 ft 435 kts 319°
2026-04-27 11:50 54.27968 38.85886 30331 ft 435 kts 329°
2026-04-27 11:50 54.30660 38.83596 29792 ft 431 kts 330°
2026-04-27 11:50 54.34204 38.80582 29031 ft 425 kts 331°
2026-04-27 11:51 54.35983 38.79063 28635 ft 421 kts 330°
2026-04-27 11:51 54.38548 38.76867 28131 ft 414 kts 330°
2026-04-27 11:51 54.43621 38.72510 27072 ft 402 kts 332°
2026-04-27 11:52 54.46105 38.70372 26536 ft 397 kts 332°
2026-04-27 11:52 54.48565 38.68252 26005 ft 392 kts 332°
2026-04-27 11:52 54.50983 38.66166 25581 ft 384 kts 331°
2026-04-27 11:52 54.53338 38.64137 25411 ft 376 kts 332°
2026-04-27 11:53 54.55683 38.62116 25440 ft 379 kts 332°
2026-04-27 11:53 54.58038 38.60085 25438 ft 375 kts 331°
2026-04-27 11:53 54.60373 38.58063 25439 ft 377 kts 332°
2026-04-27 11:53 54.62718 38.56028 25431 ft 376 kts 331°